This is the latest recevied weather packets stored in our database for station/object KI5MKI. If no packets are shown the sender has not sent any weather packets the latest 10 day(s).
| Time | Temp. | Humidity | Pressure | Rain* | Wind** | Luminosity | Snow |
|---|---|---|---|---|---|---|---|
| 1777571575 | 16.67° C | 75% | 1016.3 hPa | 0 mm | - | 146 W/m² | - |
| 1777571272 | 16.67° C | 75% | 1016.5 hPa | 0 mm | - | 115 W/m² | - |
| 1777570969 | 16.67° C | 74% | 1016.5 hPa | 0 mm | - | 117 W/m² | - |
| 1777570665 | 16.67° C | 74% | 1016.5 hPa | 0 mm | - | 128 W/m² | - |
| 1777570361 | 16.67° C | 75% | 1016.9 hPa | 0 mm | - | 160 W/m² | - |
| 1777570057 | 17.22° C | 73% | 1016.8 hPa | 0 mm | - | 165 W/m² | - |
| 1777569753 | 17.22° C | 74% | 1016.7 hPa | 0 mm | - | 217 W/m² | - |
| 1777569448 | 17.22° C | 73% | 1016.6 hPa | 0 mm | - | 260 W/m² | - |
| 1777569146 | 17.22° C | 76% | 1016.8 hPa | 0 mm | - | 256 W/m² | - |
| 1777568842 | 16.67° C | 76% | 1017.3 hPa | 0 mm | - | 237 W/m² | - |
| 1777568540 | 16.67° C | 75% | 1017.5 hPa | 0 mm | - | 167 W/m² | - |
| 1777568236 | 16.67° C | 75% | 1017.6 hPa | 0 mm | - | 117 W/m² | - |
| 1777567933 | 16.67° C | 75% | 1017.4 hPa | 0 mm | - | 114 W/m² | - |
| 1777567629 | 16.67° C | 74% | 1017.3 hPa | 0 mm | - | 98 W/m² | - |
| 1777567326 | 16.67° C | 75% | 1017.3 hPa | 0 mm | - | 93 W/m² | - |
| 1777567025 | 16.67° C | 75% | 1016.9 hPa | 0 mm | - | 103 W/m² | - |
| 1777566723 | 17.22° C | 75% | 1016.8 hPa | 0 mm | - | 108 W/m² | - |
| 1777566420 | 17.22° C | 74% | 1016.5 hPa | 0 mm | - | 142 W/m² | - |
| 1777566117 | 17.78° C | 75% | 1016.4 hPa | 0 mm | - | 223 W/m² | - |
| 1777565812 | 17.22° C | 75% | 1016.5 hPa | 0 mm | - | 262 W/m² | - |
| 1777565509 | 17.22° C | 77% | 1016.4 hPa | 0 mm | - | 322 W/m² | - |
| 1777565205 | 17.22° C | 76% | 1016.4 hPa | 0 mm | - | 241 W/m² | - |
| 1777564902 | 17.78° C | 76% | 1016.2 hPa | 0 mm | - | 266 W/m² | - |
| 1777564596 | 17.22° C | 78% | 1016 hPa | 0 mm | - | 322 W/m² | - |
| 1777564292 | 17.22° C | 78% | 1016 hPa | 0 mm | - | 304 W/m² | - |
* Rain latest hour (hover to see other rain measurements)
** Current wind speed in m/s (hover to see current wind gust speed)